TimeEDT,TemperatureF,Dew PointF,Humidity,Sea Level PressureIn,VisibilityMPH,Wind Direction,Wind SpeedMPH,Gust SpeedMPH,PrecipitationIn,Events,Conditions,WindDirDegrees,DateUTC
12:54 AM,66.9,64.9,93,30.14,5.0,Calm,Calm,-,N/A,,Clear,0,2012-10-04 04:54:00
1:54 AM,66.9,64.9,93,30.14,4.0,Calm,Calm,-,N/A,,Clear,0,2012-10-04 05:54:00
2:54 AM,68.0,66.0,93,30.14,6.0,Calm,Calm,-,N/A,,Overcast,0,2012-10-04 06:54:00
3:54 AM,66.9,66.0,97,30.12,3.0,Calm,Calm,-,0.00,,Partly Cloudy,0,2012-10-04 07:54:00
4:54 AM,68.0,66.0,93,30.12,4.0,Calm,Calm,-,N/A,,Mostly Cloudy,0,2012-10-04 08:54:00
5:54 AM,68.0,66.0,93,30.14,4.0,Calm,Calm,-,N/A,,Mostly Cloudy,0,2012-10-04 09:54:00
6:54 AM,68.0,66.9,96,30.14,4.0,Calm,Calm,-,0.00,,Mostly Cloudy,0,2012-10-04 10:54:00
7:26 AM,68.0,66.2,94,30.14,2.5,Calm,Calm,-,N/A,,Partly Cloudy,0,2012-10-04 11:26:00
7:54 AM,68.0,66.9,96,30.15,3.0,Calm,Calm,-,N/A,,Mostly Cloudy,0,2012-10-04 11:54:00
8:54 AM,71.1,66.9,87,30.14,4.0,Calm,Calm,-,0.00,Rain,Light Rain,0,2012-10-04 12:54:00
9:54 AM,71.1,68.0,90,30.15,4.0,Calm,Calm,-,0.00,,Scattered Clouds,0,2012-10-04 13:54:00
10:54 AM,72.0,69.1,91,30.12,4.0,ESE,3.5,-,0.01,,Mostly Cloudy,110,2012-10-04 14:54:00
11:54 AM,73.0,69.1,87,30.14,5.0,SSW,4.6,-,0.00,Rain,Light Rain,210,2012-10-04 15:54:00
12:54 PM,73.9,69.1,85,30.11,6.0,Calm,Calm,-,0.00,,Haze,0,2012-10-04 16:54:00
1:54 PM,75.0,69.1,82,30.09,8.0,Calm,Calm,-,N/A,,Clear,0,2012-10-04 17:54:00
2:54 PM,75.0,68.0,79,30.08,10.0,Calm,Calm,-,N/A,,Partly Cloudy,0,2012-10-04 18:54:00
3:54 PM,75.9,69.1,79,30.06,9.0,South,3.5,-,N/A,,Partly Cloudy,190,2012-10-04 19:54:00
4:21 PM,75.2,69.8,83,30.07,8.0,SW,4.6,-,N/A,,Mostly Cloudy,220,2012-10-04 20:21:00
4:42 PM,75.2,69.8,83,30.06,8.0,Calm,Calm,-,N/A,,Scattered Clouds,0,2012-10-04 20:42:00
4:54 PM,75.9,70.0,82,30.06,8.0,Calm,Calm,-,N/A,,Partly Cloudy,0,2012-10-04 20:54:00
5:54 PM,75.0,71.1,87,30.06,5.0,West,4.6,-,0.00,Rain,Light Rain,260,2012-10-04 21:54:00
6:54 PM,73.0,66.9,81,30.07,9.0,WNW,8.1,-,0.00,,Clear,300,2012-10-04 22:54:00
7:54 PM,70.0,64.0,81,30.08,10.0,NW,5.8,-,N/A,,Clear,310,2012-10-04 23:54:00
8:54 PM,68.0,64.0,87,30.09,10.0,WNW,4.6,-,N/A,,Clear,300,2012-10-05 00:54:00
9:54 PM,66.9,63.0,87,30.09,10.0,NW,3.5,-,N/A,,Clear,310,2012-10-05 01:54:00
10:54 PM,64.0,62.1,93,30.10,7.0,Calm,Calm,-,N/A,,Clear,0,2012-10-05 02:54:00
11:54 PM,63.0,61.0,93,30.10,7.0,Calm,Calm,-,N/A,,Clear,0,2012-10-05 03:54:00